Location: New Town
(33.2710°N, 90.7534°W)
Time: 02:39:51
(UTC+00:00)

Transit 4A - All Passes

Search period start: 12 May 2021 00:00
Search period end: 22 May 2021 00:00
Orbit: 870 x 974 km, 66.8° (Epoch: 11 May)

Date Brightness Start Highest point End Pass type
(mag) Time Alt. Az. Time Alt. Az. Time Alt. Az.
12 May - 00:33:24 10° SW 00:39:27 51° WNW 00:45:21 10° NNE daylight
12 May - 07:57:15 10° NNE 07:59:03 11° NE 08:00:51 10° ENE visible
12 May - 09:40:27 10° NNW 09:46:18 80° ENE 09:52:06 10° SSE visible
12 May - 11:30:30 10° W 11:31:49 11° WSW 11:33:07 10° WSW daylight
12 May - 22:57:08 10° S 23:02:38 33° ESE 23:08:00 10° NE daylight
13 May - 00:43:18 10° WSW 00:48:52 34° WNW 00:54:20 10° N daylight
13 May - 08:04:58 10° N 08:08:45 17° NE 08:12:30 10° E visible
13 May - 09:49:47 10° NNW 09:55:33 65° WSW 10:01:18 10° SSE visible
13 May - 23:05:47 10° S 23:11:48 52° ESE 23:17:41 10° NE daylight
14 May - 00:53:36 10° WSW 00:58:23 23° NW 01:03:06 10° N daylight
14 May - 08:13:31 10° N 08:18:19 26° NE 08:23:06 10° ESE visible
14 May - 09:59:20 10° NW 10:04:44 41° WSW 10:10:08 10° S visible
14 May - 23:14:48 10° SSW 23:21:01 81° ESE 23:27:07 10° NNE daylight
15 May - 01:04:28 10° W 01:08:00 16° NW 01:11:31 10° NNW daylight
15 May - 08:22:23 10° N 08:27:48 39° ENE 08:33:12 10° SE visible
15 May - 10:09:12 10° NW 10:13:51 25° WSW 10:18:32 10° SSW visible
15 May - 21:41:07 10° SE 21:44:35 15° ESE 21:48:01 10° ENE daylight
15 May - 23:24:09 10° SW 23:30:20 67° WNW 23:36:23 10° NNE daylight
16 May - 01:17:21 10° NW 01:17:45 10° NW 01:18:07 10° NW visible
16 May - 08:31:26 10° NNW 08:37:12 60° ENE 08:42:56 10° SE visible
16 May - 10:19:38 10° WNW 10:22:55 16° WSW 10:26:13 10° SW visible
16 May - 21:48:44 10° SSE 21:53:40 25° ESE 21:58:30 10° NE daylight
16 May - 23:33:49 10° SW 23:39:42 44° WNW 23:45:28 10° NNE daylight
17 May - 06:56:43 10° NNE 06:59:26 13° NE 07:02:07 10° ENE visible
17 May - 08:40:40 10° NNW 08:46:30 87° WSW 08:52:19 10° SSE visible
17 May - 21:57:06 10° S 22:02:48 39° ESE 22:08:23 10° NE daylight
17 May - 23:43:51 10° WSW 23:49:10 29° NW 23:54:23 10° N daylight
18 May - 07:04:53 10° N 07:09:04 20° NE 07:13:15 10° E visible
18 May - 08:50:04 10° NW 08:55:44 55° WSW 09:01:24 10° S visible
18 May - 22:05:53 10° S 22:11:59 61° ESE 22:17:58 10° NNE daylight
18 May - 23:54:20 10° W 23:58:43 20° NW 00:03:02 10° N daylight
19 May - 07:13:34 10° N 07:18:37 30° NE 07:23:39 10° ESE visible
19 May - 08:59:43 10° NW 09:04:54 34° WSW 09:10:05 10° S visible
19 May - 20:34:20 10° ESE 20:35:42 11° ESE 20:37:04 10° E daylight
19 May - 22:15:02 10° SSW 22:21:15 87° WNW 22:27:21 10° NNE daylight
20 May - 00:05:32 10° WNW 00:08:22 13° NW 00:11:12 10° NNW daylight
20 May - 07:22:30 10° NNW 07:28:04 45° ENE 07:33:37 10° SE visible
20 May - 09:09:43 10° WNW 09:14:00 21° WSW 09:18:17 10° SSW visible
20 May - 20:40:39 10° SSE 20:44:44 18° ESE 20:48:45 10° ENE daylight
20 May - 22:24:29 10° SW 22:30:35 57° WNW 22:36:32 10° NNE daylight
21 May - 07:31:36 10° NNW 07:37:25 71° ENE 07:43:13 10° SSE visible
21 May - 09:20:35 10° WNW 09:23:02 13° WSW 09:25:30 10° SW visible
21 May - 20:48:36 10° SSE 20:53:50 29° ESE 20:58:58 10° NE daylight
21 May - 22:34:17 10° SW 22:39:58 38° WNW 22:45:34 10° N daylight
